| time (UTC) | temp F | wind direction | speed MPH | gust MPH | rain 1hr in | rain 24hr in | rain mn in | humidity % | barometer mb |
| 20260904141012 | 53 | 280 | 0.0 | 0.0 | 0.00 | 0.05 | 0.01 | 94 | 1012.7 |
| 20260904140512 | 52 | 280 | 0.0 | 0.0 | 0.00 | 0.05 | 0.01 | 94 | 1012.6 |
| 20260904140004 | 52 | 280 | 0.0 | 0.0 | 0.00 | 0.05 | 0.01 | 94 | 1012.5 |
| 20260904135504 | 52 | 280 | 0.0 | 0.0 | 0.00 | 0.05 | 0.01 | 93 | 1012.4 |
| 20260904135007 | 52 | 280 | 0.0 | 0.0 | 0.00 | 0.05 | 0.01 | 94 | 1012.4 |
| 20260904134503 | 52 | 280 | 0.0 | 0.0 | 0.00 | 0.05 | 0.01 | 94 | 1012.3 |
| 20260904134007 | 52 | 280 | 0.0 | 0.0 | 0.00 | 0.05 | 0.01 | 94 | 1012.3 |
| 20260904133504 | 52 | 280 | 0.0 | 0.0 | 0.00 | 0.05 | 0.01 | 94 | 1012.2 |
| 20260904133008 | 52 | 280 | 0.0 | 0.0 | 0.00 | 0.06 | 0.01 | 93 | 1012.2 |
| 20260904132509 | 52 | 280 | 0.0 | 0.0 | 0.00 | 0.06 | 0.01 | 94 | 1012.2 |
| 20260904132008 | 52 | 280 | 0.0 | 0.0 | 0.00 | 0.06 | 0.01 | 93 | 1012.2 |
| 20260904131515 | 52 | 280 | 0.0 | 0.0 | 0.00 | 0.06 | 0.01 | 93 | 1012.1 |
| 20260904131011 | 52 | 280 | 0.0 | 0.0 | 0.00 | 0.06 | 0.01 | 93 | 1012.0 |
| 20260904130516 | 52 | 280 | 0.0 | 0.0 | 0.00 | 0.07 | 0.01 | 93 | 1012.0 |
| 20260904130023 | 52 | 280 | 0.0 | 0.0 | 0.00 | 0.07 | 0.01 | 93 | 1012.0 |
| 20260904125512 | 52 | 280 | 0.0 | 0.0 | 0.00 | 0.08 | 0.01 | 93 | 1011.9 |
| 20260904125017 | 52 | 280 | 0.0 | 0.0 | 0.00 | 0.08 | 0.01 | 93 | 1012.0 |
| 20260904124504 | 52 | 280 | 0.0 | 0.0 | 0.00 | 0.09 | 0.01 | 94 | 1012.0 |
| 20260904124004 | 52 | 279 | 0.0 | 0.0 | 0.00 | 0.09 | 0.01 | 93 | 1011.9 |
| 20260904123503 | 52 | 279 | 0.0 | 0.0 | 0.00 | 0.09 | 0.01 | 93 | 1011.8 |
| 20260904123006 | 52 | 279 | 0.0 | 0.0 | 0.00 | 0.09 | 0.01 | 93 | 1011.9 |
| 20260904122505 | 52 | 280 | 0.0 | 0.0 | 0.00 | 0.09 | 0.01 | 93 | 1011.7 |
| 20260904122008 | 52 | 279 | 0.0 | 0.0 | 0.00 | 0.10 | 0.01 | 93 | 1011.7 |
| 20260904121512 | 52 | 280 | 0.0 | 0.0 | 0.00 | 0.11 | 0.01 | 93 | 1011.7 |
| 20260904121008 | 52 | 280 | 0.0 | 0.0 | 0.00 | 0.12 | 0.01 | 93 | 1011.7 |
| 20260904120511 | 52 | 280 | 0.0 | 0.0 | 0.00 | 0.12 | 0.01 | 93 | 1011.7 |
| 20260904120025 | 52 | 280 | 0.0 | 0.0 | 0.00 | 0.14 | 0.01 | 93 | 1011.7 |
| 20260904115511 | 52 | 280 | 0.0 | 0.0 | 0.00 | 0.14 | 0.01 | 93 | 1011.5 |
| 20260904115010 | 52 | 280 | 0.0 | 0.0 | 0.00 | 0.14 | 0.01 | 93 | 1011.5 |
| 20260904114526 | 52 | 279 | 0.0 | 0.0 | 0.00 | 0.14 | 0.01 | 93 | 1011.5 |
| 20260904114013 | 52 | 279 | 0.0 | 0.0 | 0.00 | 0.14 | 0.01 | 93 | 1011.5 |
| 20260904113514 | 52 | 280 | 0.0 | 0.0 | 0.00 | 0.14 | 0.01 | 93 | 1011.5 |
| 20260904113013 | 52 | 280 | 0.0 | 0.0 | 0.00 | 0.14 | 0.01 | 93 | 1011.5 |
| 20260904112504 | 52 | 280 | 0.0 | 0.0 | 0.00 | 0.14 | 0.01 | 93 | 1011.4 |
| 20260904112004 | 52 | 279 | 0.0 | 0.0 | 0.00 | 0.14 | 0.01 | 93 | 1011.4 |
| 20260904111507 | 52 | 280 | 0.0 | 0.0 | 0.00 | 0.14 | 0.01 | 93 | 1011.5 |
| 20260904111010 | 52 | 280 | 0.0 | 0.0 | 0.00 | 0.14 | 0.01 | 93 | 1011.5 |
| 20260904110508 | 53 | 279 | 0.0 | 0.0 | 0.00 | 0.14 | 0.01 | 93 | 1011.4 |
| 20260904110030 | 52 | 280 | 0.0 | 0.0 | 0.00 | 0.14 | 0.01 | 93 | 1011.3 |
| 20260904105512 | 53 | 279 | 0.0 | 0.0 | 0.00 | 0.14 | 0.01 | 93 | 1011.3 |
| 20260904105012 | 53 | 279 | 0.0 | 0.0 | 0.00 | 0.14 | 0.01 | 93 | 1011.2 |
| 20260904104523 | 53 | 280 | 0.0 | 0.0 | 0.00 | 0.14 | 0.01 | 93 | 1011.3 |
| 20260904104012 | 53 | 279 | 0.0 | 0.0 | 0.00 | 0.14 | 0.01 | 93 | 1011.3 |
| 20260904103513 | 53 | 280 | 0.0 | 0.0 | 0.00 | 0.14 | 0.01 | 93 | 1011.2 |
| 20260904103027 | 53 | 279 | 0.0 | 0.0 | 0.00 | 0.14 | 0.01 | 93 | 1011.3 |
| 20260904102516 | 53 | 279 | 0.0 | 0.0 | 0.00 | 0.14 | 0.01 | 92 | 1011.2 |
| 20260904102014 | 53 | 279 | 0.0 | 0.0 | 0.00 | 0.14 | 0.01 | 92 | 1011.2 |
| 20260904101508 | 53 | 279 | 0.0 | 0.0 | 0.00 | 0.14 | 0.01 | 92 | 1011.2 |
| 20260904101007 | 53 | 301 | 0.0 | 0.0 | 0.00 | 0.14 | 0.01 | 92 | 1011.1 |
| 20260904100510 | 53 | 315 | 0.0 | 0.0 | 0.00 | 0.14 | 0.01 | 92 | 1011.1 |
| 20260904100012 | 53 | 315 | 0.0 | 0.0 | 0.00 | 0.14 | 0.01 | 93 | 1011.1 |
| 20260904095508 | 53 | 315 | 0.0 | 0.0 | 0.00 | 0.14 | 0.01 | 92 | 1011.1 |
| 20260904095010 | 53 | 315 | 0.0 | 0.0 | 0.00 | 0.14 | 0.01 | 93 | 1011.1 |
| 20260904094520 | 53 | 316 | 0.0 | 0.0 | 0.00 | 0.14 | 0.01 | 93 | 1011.1 |
| 20260904094012 | 53 | 315 | 0.0 | 0.0 | 0.00 | 0.14 | 0.01 | 93 | 1011.1 |
| 20260904093514 | 53 | 316 | 0.0 | 0.0 | 0.00 | 0.14 | 0.01 | 93 | 1011.1 |
| 20260904093025 | 53 | 315 | 0.0 | 0.0 | 0.00 | 0.14 | 0.01 | 92 | 1011.1 |
| 20260904092515 | 53 | 315 | 0.0 | 0.0 | 0.00 | 0.14 | 0.01 | 92 | 1011.1 |
| 20260904092014 | 53 | 315 | 0.0 | 0.0 | 0.00 | 0.14 | 0.01 | 92 | 1011.1 |
| 20260904091531 | 53 | 315 | 0.0 | 0.0 | 0.00 | 0.14 | 0.01 | 92 | 1011.1 |
| 20260904091016 | 53 | 315 | 0.0 | 0.0 | 0.00 | 0.14 | 0.01 | 92 | 1011.1 |
| 20260904090516 | 53 | 315 | 0.0 | 0.0 | 0.00 | 0.14 | 0.01 | 92 | 1011.1 |
| 20260904090031 | 53 | 257 | 0.0 | 0.0 | 0.00 | 0.14 | 0.01 | 92 | 1011.2 |
| 20260904085506 | 53 | 257 | 0.0 | 0.0 | 0.00 | 0.14 | 0.01 | 92 | 1011.1 |
| 20260904085011 | 53 | 257 | 0.0 | 0.0 | 0.00 | 0.14 | 0.01 | 92 | 1011.1 |
| 20260904084519 | 53 | 261 | 0.0 | 0.0 | 0.00 | 0.14 | 0.01 | 92 | 1011.1 |
| 20260904084011 | 53 | 261 | 0.0 | 0.0 | 0.01 | 0.14 | 0.01 | 92 | 1011.1 |
| 20260904083511 | 53 | 261 | 0.0 | 0.0 | 0.01 | 0.14 | 0.01 | 92 | 1011.1 |
| 20260904083024 | 53 | 261 | 0.0 | 0.0 | 0.01 | 0.14 | 0.01 | 92 | 1011.0 |
| 20260904082517 | 53 | 261 | 0.0 | 0.0 | 0.01 | 0.14 | 0.01 | 92 | 1011.0 |
| 20260904082015 | 53 | 261 | 0.0 | 0.0 | 0.01 | 0.14 | 0.01 | 91 | 1011.0 |
| 20260904081527 | 54 | 261 | 0.0 | 0.0 | 0.01 | 0.14 | 0.01 | 91 | 1011.0 |
| 20260904081016 | 54 | 246 | 0.0 | 0.0 | 0.01 | 0.14 | 0.01 | 91 | 1011.0 |
| 20260904080519 | 54 | 101 | 0.0 | 0.0 | 0.01 | 0.14 | 0.01 | 91 | 1011.1 |
| 20260904080033 | 54 | 101 | 0.0 | 0.0 | 0.01 | 0.14 | 0.01 | 91 | 1011.1 |
| 20260904075515 | 54 | 101 | 0.0 | 0.0 | 0.02 | 0.14 | 0.01 | 90 | 1011.1 |
| 20260904075021 | 54 | 101 | 0.0 | 0.0 | 0.02 | 0.14 | 0.01 | 90 | 1011.2 |
| 20260904074538 | 55 | 101 | 0.0 | 0.0 | 0.02 | 0.14 | 0.01 | 90 | 1011.2 |
| 20260904074010 | 55 | 101 | 0.0 | 2.0 | 0.01 | 0.13 | 0.00 | 90 | 1011.3 |
| 20260904073513 | 55 | 98 | 0.0 | 2.0 | 0.01 | 0.13 | 0.00 | 90 | 1011.3 |
| 20260904073020 | 55 | 128 | 0.0 | 1.0 | 0.01 | 0.13 | 0.00 | 90 | 1011.3 |
| 20260904072512 | 55 | 107 | 0.0 | 0.0 | 0.01 | 0.13 | 0.00 | 90 | 1011.3 |
| 20260904072012 | 55 | 107 | 0.0 | 0.0 | 0.01 | 0.13 | 0.00 | 89 | 1011.3 |
| 20260904071527 | 55 | 107 | 0.0 | 0.0 | 0.01 | 0.13 | 0.00 | 89 | 1011.3 |
| 20260904071012 | 55 | 107 | 0.0 | 2.0 | 0.01 | 0.13 | 0.00 | 88 | 1011.2 |
| 20260904070518 | 55 | 108 | 0.0 | 2.0 | 0.01 | 0.13 | 0.00 | 88 | 1011.3 |
| 20260904070042 | 56 | 115 | 0.0 | 2.0 | 0.01 | 0.13 | 0.00 | 88 | 1011.3 |
| 20260904065516 | 56 | 118 | 1.0 | 2.0 | 0.00 | 0.12 | 0.12 | 87 | 1011.3 |
| 20260904065016 | 56 | 122 | 0.0 | 2.0 | 0.00 | 0.12 | 0.12 | 87 | 1011.3 |
| 20260904064538 | 56 | 131 | 0.0 | 3.0 | 0.00 | 0.12 | 0.12 | 87 | 1011.3 |
| 20260904064018 | 56 | 107 | 1.0 | 3.0 | 0.00 | 0.12 | 0.12 | 87 | 1011.3 |
| 20260904063519 | 56 | 130 | 0.0 | 3.0 | 0.00 | 0.12 | 0.12 | 87 | 1011.3 |
| 20260904063033 | 56 | 83 | 1.0 | 3.0 | 0.00 | 0.12 | 0.12 | 87 | 1011.3 |
| 20260904062512 | 56 | 99 | 0.0 | 2.0 | 0.00 | 0.12 | 0.12 | 87 | 1011.3 |
| 20260904062013 | 56 | 103 | 1.0 | 2.0 | 0.00 | 0.12 | 0.12 | 87 | 1011.2 |
| 20260904061524 | 56 | 121 | 0.0 | 3.0 | 0.00 | 0.12 | 0.12 | 86 | 1011.2 |
| 20260904061015 | 56 | 74 | 1.0 | 3.0 | 0.00 | 0.12 | 0.12 | 86 | 1011.2 |
| 20260904060514 | 56 | 105 | 0.0 | 2.0 | 0.00 | 0.12 | 0.12 | 87 | 1011.1 |
| 20260904060034 | 56 | 98 | 0.0 | 0.0 | 0.00 | 0.12 | 0.12 | 89 | 1011.1 |
| 20260904055515 | 56 | 98 | 0.0 | 0.0 | 0.00 | 0.12 | 0.12 | 89 | 1011.0 |
| 20260904055016 | 56 | 98 | 0.0 | 0.0 | 0.00 | 0.12 | 0.12 | 89 | 1011.0 |
| 20260904054533 | 56 | 98 | 0.0 | 0.0 | 0.00 | 0.12 | 0.12 | 88 | 1011.0 |
| 20260904054019 | 55 | 98 | 0.0 | 0.0 | 0.00 | 0.12 | 0.12 | 88 | 1010.9 |
| 20260904053516 | 55 | 98 | 0.0 | 0.0 | 0.00 | 0.12 | 0.12 | 88 | 1011.0 |
| 20260904053034 | 56 | 98 | 0.0 | 0.0 | 0.00 | 0.12 | 0.12 | 88 | 1011.0 |
| 20260904052519 | 56 | 98 | 0.0 | 0.0 | 0.00 | 0.12 | 0.12 | 88 | 1011.0 |
| 20260904052019 | 56 | 98 | 0.0 | 0.0 | 0.00 | 0.12 | 0.12 | 88 | 1011.0 |
| 20260904051532 | 56 | 98 | 0.0 | 0.0 | 0.00 | 0.12 | 0.12 | 88 | 1011.0 |
| 20260904051015 | 56 | 98 | 0.0 | 0.0 | 0.00 | 0.12 | 0.12 | 89 | 1011.1 |
| 20260904050514 | 56 | 98 | 0.0 | 0.0 | 0.00 | 0.12 | 0.12 | 89 | 1011.0 |
| 20260904050028 | 56 | 98 | 0.0 | 0.0 | 0.00 | 0.12 | 0.12 | 89 | 1011.0 |
| 20260904045504 | 56 | 98 | 0.0 | 0.0 | 0.00 | 0.12 | 0.12 | 89 | 1011.0 |
| 20260904045004 | 56 | 98 | 0.0 | 0.0 | 0.00 | 0.12 | 0.12 | 89 | 1011.0 |
| 20260904044507 | 56 | 98 | 0.0 | 0.0 | 0.00 | 0.12 | 0.12 | 89 | 1011.1 |
| 20260904044004 | 56 | 98 | 0.0 | 0.0 | 0.00 | 0.12 | 0.12 | 89 | 1011.0 |
| 20260904043506 | 56 | 98 | 0.0 | 0.0 | 0.00 | 0.12 | 0.12 | 88 | 1011.0 |
| 20260904043015 | 56 | 98 | 0.0 | 0.0 | 0.00 | 0.12 | 0.12 | 88 | 1011.0 |
| 20260904042509 | 56 | 98 | 0.0 | 0.0 | 0.00 | 0.12 | 0.12 | 89 | 1011.0 |
| 20260904042009 | 56 | 98 | 0.0 | 0.0 | 0.00 | 0.12 | 0.12 | 88 | 1011.0 |
| 20260904041516 | 56 | 98 | 0.0 | 0.0 | 0.00 | 0.12 | 0.12 | 88 | 1010.9 |
| 20260904041010 | 56 | 98 | 0.0 | 0.0 | 0.00 | 0.12 | 0.12 | 89 | 1010.9 |
| 20260904040513 | 56 | 98 | 0.0 | 0.0 | 0.00 | 0.12 | 0.12 | 88 | 1011.0 |
| 20260904040023 | 56 | 98 | 0.0 | 0.0 | 0.00 | 0.12 | 0.12 | 88 | 1011.0 |
| 20260904035516 | 56 | 98 | 0.0 | 0.0 | 0.00 | 0.12 | 0.12 | 88 | 1010.9 |
| 20260904035014 | 56 | 98 | 0.0 | 0.0 | 0.00 | 0.12 | 0.12 | 88 | 1010.9 |
| 20260904034543 | 56 | 98 | 0.0 | 0.0 | 0.00 | 0.12 | 0.12 | 88 | 1010.9 |
| 20260904034019 | 56 | 98 | 0.0 | 0.0 | 0.00 | 0.12 | 0.12 | 88 | 1010.8 |
| 20260904033507 | 56 | 98 | 0.0 | 0.0 | 0.00 | 0.12 | 0.12 | 88 | 1010.8 |
| 20260904033007 | 56 | 98 | 0.0 | 0.0 | 0.00 | 0.12 | 0.12 | 88 | 1010.6 |
| 20260904032507 | 56 | 98 | 0.0 | 0.0 | 0.00 | 0.12 | 0.12 | 87 | 1010.6 |
| 20260904032008 | 56 | 98 | 0.0 | 0.0 | 0.00 | 0.12 | 0.12 | 88 | 1010.4 |
| 20260904031515 | 56 | 98 | 0.0 | 0.0 | 0.00 | 0.12 | 0.12 | 88 | 1010.5 |
| 20260904031011 | 56 | 98 | 0.0 | 0.0 | 0.01 | 0.12 | 0.12 | 87 | 1010.4 |
| 20260904030510 | 56 | 98 | 0.0 | 0.0 | 0.01 | 0.12 | 0.12 | 87 | 1010.3 |
| 20260904030021 | 56 | 98 | 0.0 | 0.0 | 0.01 | 0.12 | 0.12 | 87 | 1010.4 |
| 20260904025511 | 57 | 98 | 0.0 | 0.0 | 0.01 | 0.12 | 0.12 | 86 | 1010.4 |
| 20260904025012 | 57 | 98 | 0.0 | 0.0 | 0.02 | 0.12 | 0.12 | 85 | 1010.4 |
| 20260904024528 | 57 | 98 | 0.0 | 0.0 | 0.02 | 0.12 | 0.12 | 86 | 1010.4 |
| 20260904024014 | 57 | 98 | 0.0 | 0.0 | 0.02 | 0.12 | 0.12 | 87 | 1010.5 |
| 20260904023515 | 58 | 98 | 0.0 | 0.0 | 0.02 | 0.12 | 0.12 | 86 | 1010.5 |
| 20260904023030 | 58 | 98 | 0.0 | 0.0 | 0.02 | 0.12 | 0.12 | 85 | 1010.5 |
| 20260904022524 | 58 | 98 | 0.0 | 2.0 | 0.02 | 0.12 | 0.12 | 85 | 1010.4 |
| 20260904022010 | 58 | 98 | 0.0 | 2.0 | 0.02 | 0.12 | 0.12 | 86 | 1010.4 |
| 20260904021510 | 58 | 98 | 0.0 | 2.0 | 0.02 | 0.12 | 0.12 | 85 | 1010.4 |
| 20260904021007 | 58 | 98 | 0.0 | 4.0 | 0.01 | 0.11 | 0.11 | 85 | 1010.4 |
| 20260904020507 | 58 | 105 | 1.0 | 6.0 | 0.01 | 0.11 | 0.11 | 84 | 1010.4 |
| 20260904020019 | 59 | 114 | 2.0 | 6.0 | 0.01 | 0.11 | 0.11 | 83 | 1010.3 |
| 20260904015513 | 59 | 113 | 2.0 | 3.0 | 0.01 | 0.11 | 0.11 | 82 | 1010.3 |
| 20260904015012 | 59 | 101 | 1.0 | 3.0 | 0.00 | 0.10 | 0.10 | 81 | 1010.2 |
| 20260904014524 | 60 | 105 | 2.0 | 6.0 | 0.00 | 0.10 | 0.10 | 79 | 1010.2 |
| 20260904014012 | 60 | 108 | 2.0 | 6.0 | 0.00 | 0.10 | 0.10 | 78 | 1010.3 |
| 20260904013516 | 61 | 19 | 2.0 | 6.0 | 0.00 | 0.10 | 0.10 | 74 | 1010.3 |
| 20260904013030 | 62 | 121 | 1.0 | 2.0 | 0.00 | 0.10 | 0.10 | 71 | 1010.3 |
| 20260904012517 | 62 | 261 | 0.0 | 2.0 | 0.00 | 0.10 | 0.10 | 70 | 1010.3 |
| 20260904012016 | 63 | 284 | 0.0 | 3.0 | 0.00 | 0.10 | 0.10 | 67 | 1010.3 |
| 20260904011556 | 63 | 286 | 0.0 | 3.0 | 0.00 | 0.10 | 0.10 | 66 | 1010.3 |
| 20260904011019 | 63 | 260 | 1.0 | 6.0 | 0.00 | 0.10 | 0.10 | 64 | 1010.3 |
| 20260904010508 | 64 | 284 | 2.0 | 6.0 | 0.00 | 0.11 | 0.10 | 63 | 1010.2 |
| 20260904010013 | 64 | 317 | 2.0 | 5.0 | 0.00 | 0.12 | 0.10 | 61 | 1010.2 |
| 20260904005515 | 64 | 150 | 1.0 | 5.0 | 0.00 | 0.12 | 0.10 | 63 | 1010.2 |
| 20260904005012 | 65 | 182 | 1.0 | 4.0 | 0.00 | 0.12 | 0.10 | 63 | 1010.2 |
| 20260904004518 | 65 | 326 | 1.0 | 4.0 | 0.00 | 0.12 | 0.10 | 63 | 1010.1 |
| 20260904004017 | 65 | 215 | 1.0 | 4.0 | 0.00 | 0.12 | 0.10 | 63 | 1010.1 |
| 20260904003521 | 65 | 180 | 0.0 | 9.0 | 0.00 | 0.13 | 0.10 | 64 | 1010.0 |
| 20260904003026 | 65 | 284 | 1.0 | 9.0 | 0.00 | 0.13 | 0.10 | 63 | 1009.9 |
| 20260904002516 | 66 | 88 | 2.0 | 8.0 | 0.00 | 0.13 | 0.10 | 62 | 1009.9 |
| 20260904002017 | 66 | 236 | 2.0 | 8.0 | 0.00 | 0.14 | 0.10 | 61 | 1009.9 |
| 20260904001530 | 66 | 28 | 1.0 | 7.0 | 0.00 | 0.16 | 0.10 | 59 | 1010.0 |
| 20260904001017 | 66 | 234 | 1.0 | 3.0 | 0.00 | 0.18 | 0.10 | 58 | 1009.9 |
| 20260904000518 | 66 | 205 | 1.0 | 4.0 | 0.00 | 0.18 | 0.10 | 57 | 1009.9 |
| 20260904000040 | 66 | 200 | 1.0 | 4.0 | 0.00 | 0.18 | 0.10 | 58 | 1009.8 |
| 20260903235517 | 66 | 271 | 1.0 | 3.0 | 0.00 | 0.18 | 0.10 | 55 | 1009.7 |
| 20260903235010 | 66 | 259 | 1.0 | 4.0 | 0.00 | 0.18 | 0.10 | 56 | 1009.7 |
| 20260903234526 | 67 | 5 | 2.0 | 4.0 | 0.00 | 0.18 | 0.10 | 55 | 1009.7 |
| 20260903234009 | 67 | 273 | 1.0 | 5.0 | 0.00 | 0.18 | 0.10 | 56 | 1009.7 |
| 20260903233509 | 66 | 261 | 2.0 | 5.0 | 0.00 | 0.18 | 0.10 | 55 | 1009.7 |
| 20260903233024 | 67 | 192 | 2.0 | 7.0 | 0.00 | 0.18 | 0.10 | 54 | 1009.7 |
| 20260903232515 | 66 | 278 | 3.0 | 7.0 | 0.00 | 0.18 | 0.10 | 56 | 1009.7 |
| 20260903232016 | 66 | 311 | 3.0 | 7.0 | 0.00 | 0.18 | 0.10 | 55 | 1009.7 |
| 20260903231527 | 66 | 11 | 2.0 | 6.0 | 0.00 | 0.18 | 0.10 | 55 | 1009.7 |
| 20260903231016 | 66 | 245 | 2.0 | 7.0 | 0.00 | 0.18 | 0.10 | 56 | 1009.7 |
| 20260903230515 | 66 | 337 | 3.0 | 7.0 | 0.00 | 0.19 | 0.10 | 57 | 1009.7 |
| 20260903230040 | 66 | 264 | 3.0 | 7.0 | 0.00 | 0.19 | 0.10 | 57 | 1009.7 |
| 20260903225519 | 66 | 311 | 4.0 | 7.0 | 0.00 | 0.20 | 0.10 | 55 | 1009.8 |
| 20260903225019 | 66 | 13 | 3.0 | 5.0 | 0.00 | 0.20 | 0.10 | 57 | 1009.8 |
| 20260903224532 | 65 | 260 | 2.0 | 5.0 | 0.00 | 0.21 | 0.10 | 58 | 1009.9 |
| 20260903224019 | 65 | 360 | 2.0 | 6.0 | 0.00 | 0.22 | 0.10 | 58 | 1009.9 |
| 20260903223510 | 64 | 325 | 2.0 | 6.0 | 0.00 | 0.23 | 0.10 | 60 | 1009.9 |
| 20260903223019 | 64 | 319 | 1.0 | 4.0 | 0.00 | 0.23 | 0.10 | 58 | 1010.0 |
| 20260903222512 | 64 | 277 | 1.0 | 4.0 | 0.00 | 0.24 | 0.10 | 61 | 1010.0 |
| 20260903222014 | 64 | 280 | 2.0 | 5.0 | 0.00 | 0.24 | 0.10 | 60 | 1010.0 |
| 20260903221527 | 65 | 266 | 2.0 | 7.0 | 0.00 | 0.24 | 0.10 | 60 | 1010.1 |
| 20260903221014 | 64 | 313 | 3.0 | 7.0 | 0.00 | 0.25 | 0.10 | 62 | 1010.0 |
| 20260903220516 | 64 | 288 | 2.0 | 6.0 | 0.00 | 0.25 | 0.10 | 62 | 1010.0 |
| 20260903220028 | 64 | 313 | 2.0 | 6.0 | 0.00 | 0.26 | 0.10 | 62 | 1010.1 |
| 20260903215519 | 64 | 304 | 0.0 | 4.0 | 0.00 | 0.26 | 0.10 | 62 | 1010.1 |
| 20260903215018 | 64 | 270 | 2.0 | 4.0 | 0.00 | 0.27 | 0.10 | 65 | 1010.1 |
| 20260903214535 | 63 | 280 | 1.0 | 6.0 | 0.00 | 0.27 | 0.10 | 66 | 1010.0 |
| 20260903214019 | 63 | 295 | 3.0 | 6.0 | 0.00 | 0.28 | 0.10 | 66 | 1010.1 |
| 20260903213518 | 63 | 286 | 2.0 | 6.0 | 0.00 | 0.28 | 0.10 | 66 | 1010.2 |
| 20260903213037 | 63 | 261 | 2.0 | 6.0 | 0.00 | 0.29 | 0.10 | 67 | 1010.1 |
| 20260903212501 | 63 | 283 | 1.0 | 3.0 | 0.00 | 0.30 | 0.10 | 67 | 1010.1 |
| 20260903212002 | 62 | 287 | 2.0 | 7.0 | 0.00 | 0.30 | 0.10 | 68 | 1010.1 |
| 20260903211501 | 63 | 290 | 1.0 | 7.0 | 0.00 | 0.30 | 0.10 | 68 | 1010.1 |
| 20260903211001 | 63 | 263 | 1.0 | 4.0 | 0.00 | 0.31 | 0.10 | 67 | 1010.0 |
| 20260903210505 | 63 | 247 | 1.0 | 4.0 | 0.00 | 0.31 | 0.10 | 65 | 1010.0 |
| 20260903210006 | 64 | 211 | 0.0 | 3.0 | 0.00 | 0.31 | 0.10 | 69 | 1010.0 |
| 20260903205505 | 63 | 309 | 0.0 | 7.0 | 0.00 | 0.31 | 0.10 | 67 | 1010.0 |
| 20260903205005 | 63 | 191 | 2.0 | 7.0 | 0.00 | 0.32 | 0.10 | 66 | 1009.9 |
| 20260903204510 | 63 | 220 | 1.0 | 4.0 | 0.00 | 0.32 | 0.10 | 68 | 1009.9 |
| 20260903204009 | 63 | 280 | 0.0 | 4.0 | 0.00 | 0.32 | 0.10 | 68 | 1009.9 |
| 20260903203507 | 64 | 309 | 2.0 | 4.0 | 0.00 | 0.32 | 0.10 | 69 | 1009.9 |
| 20260903203024 | 63 | 213 | 2.0 | 6.0 | 0.00 | 0.32 | 0.10 | 68 | 1009.9 |
| 20260903202508 | 63 | 294 | 1.0 | 6.0 | 0.00 | 0.32 | 0.10 | 68 | 1009.9 |
| 20260903202002 | 63 | 279 | 2.0 | 4.0 | 0.00 | 0.32 | 0.10 | 68 | 1009.9 |
| 20260903201501 | 62 | 271 | 2.0 | 4.0 | 0.00 | 0.32 | 0.10 | 68 | 1009.9 |
| 20260903201001 | 62 | 304 | 1.0 | 4.0 | 0.00 | 0.32 | 0.10 | 67 | 1009.9 |
| 20260903200502 | 62 | 184 | 1.0 | 2.0 | 0.00 | 0.32 | 0.10 | 70 | 1009.9 |
| 20260903200004 | 62 | 242 | 0.0 | 2.0 | 0.00 | 0.32 | 0.10 | 70 | 1010.0 |
| 20260903195501 | 62 | 138 | 0.0 | 5.0 | 0.00 | 0.32 | 0.10 | 71 | 1010.0 |
| 20260903195005 | 61 | 141 | 1.0 | 5.0 | 0.00 | 0.32 | 0.10 | 72 | 1010.0 |
| 20260903194505 | 61 | 165 | 1.0 | 5.0 | 0.00 | 0.32 | 0.10 | 71 | 1010.0 |
| 20260903194010 | 61 | 145 | 0.0 | 6.0 | 0.00 | 0.32 | 0.10 | 73 | 1010.0 |
| 20260903193509 | 61 | 207 | 2.0 | 6.0 | 0.00 | 0.32 | 0.10 | 71 | 1009.9 |
| 20260903193017 | 61 | 217 | 1.0 | 2.0 | 0.00 | 0.32 | 0.10 | 72 | 1010.0 |
| 20260903192507 | 61 | 237 | 0.0 | 5.0 | 0.00 | 0.33 | 0.10 | 71 | 1009.9 |
| 20260903192008 | 61 | 184 | 1.0 | 7.0 | 0.00 | 0.33 | 0.10 | 70 | 1009.9 |
| 20260903191510 | 62 | 209 | 2.0 | 7.0 | 0.00 | 0.33 | 0.10 | 69 | 1009.9 |
| 20260903191006 | 63 | 200 | 0.0 | 5.0 | 0.00 | 0.33 | 0.10 | 68 | 1009.9 |
| 20260903190502 | 62 | 220 | 2.0 | 5.0 | 0.00 | 0.33 | 0.10 | 71 | 1010.0 |
| 20260903190002 | 61 | 170 | 2.0 | 4.0 | 0.00 | 0.33 | 0.10 | 72 | 1010.0 |
| 20260903185502 | 60 | 190 | 1.0 | 4.0 | 0.00 | 0.33 | 0.10 | 74 | 1010.0 |
| 20260903185001 | 60 | 191 | 1.0 | 4.0 | 0.00 | 0.33 | 0.10 | 74 | 1010.0 |
| 20260903184506 | 60 | 208 | 0.0 | 2.0 | 0.00 | 0.33 | 0.10 | 73 | 1010.0 |
| 20260903184008 | 61 | 336 | 0.0 | 2.0 | 0.00 | 0.33 | 0.10 | 71 | 1009.9 |
| 20260903183506 | 60 | 188 | 0.0 | 6.0 | 0.00 | 0.33 | 0.10 | 72 | 1009.9 |
| 20260903183010 | 61 | 197 | 2.0 | 6.0 | 0.00 | 0.33 | 0.10 | 71 | 1009.8 |
| 20260903182507 | 61 | 223 | 0.0 | 5.0 | 0.00 | 0.33 | 0.10 | 75 | 1009.8 |
| 20260903182009 | 60 | 252 | 1.0 | 5.0 | 0.00 | 0.33 | 0.10 | 74 | 1009.8 |
| 20260903181515 | 60 | 181 | 1.0 | 5.0 | 0.00 | 0.33 | 0.10 | 76 | 1009.8 |
| 20260903181008 | 60 | 233 | 1.0 | 5.0 | 0.00 | 0.33 | 0.10 | 77 | 1009.8 |
| 20260903180513 | 60 | 184 | 0.0 | 4.0 | 0.00 | 0.33 | 0.10 | 76 | 1009.9 |
| 20260903180021 | 59 | 171 | 2.0 | 4.0 | 0.00 | 0.33 | 0.10 | 74 | 1009.9 |
| 20260903175507 | 59 | 207 | 0.0 | 7.0 | 0.00 | 0.33 | 0.10 | 77 | 1009.8 |
| 20260903175003 | 59 | 176 | 3.0 | 6.0 | 0.00 | 0.33 | 0.10 | 76 | 1009.8 |
| 20260903174505 | 59 | 195 | 2.0 | 4.0 | 0.00 | 0.33 | 0.10 | 75 | 1009.7 |
| 20260903174004 | 59 | 216 | 1.0 | 4.0 | 0.00 | 0.33 | 0.10 | 77 | 1009.7 |
| 20260903173504 | 59 | 121 | 1.0 | 5.0 | 0.00 | 0.33 | 0.10 | 77 | 1009.7 |
| 20260903173008 | 59 | 198 | 2.0 | 9.0 | 0.00 | 0.33 | 0.10 | 77 | 1009.6 |
| 20260903172508 | 59 | 169 | 3.0 | 9.0 | 0.00 | 0.33 | 0.10 | 76 | 1009.6 |
| 20260903172007 | 59 | 117 | 2.0 | 9.0 | 0.00 | 0.33 | 0.10 | 77 | 1009.5 |
| 20260903171512 | 59 | 200 | 3.0 | 8.0 | 0.00 | 0.33 | 0.10 | 79 | 1009.5 |
| 20260903171008 | 59 | 152 | 1.0 | 4.0 | 0.00 | 0.33 | 0.10 | 80 | 1009.5 |
| 20260903170510 | 58 | 225 | 2.0 | 4.0 | 0.00 | 0.33 | 0.10 | 80 | 1009.5 |
| 20260903170018 | 57 | 101 | 1.0 | 5.0 | 0.00 | 0.33 | 0.10 | 83 | 1009.5 |
| 20260903165512 | 57 | 172 | 2.0 | 5.0 | 0.00 | 0.33 | 0.10 | 82 | 1009.5 |
| 20260903165012 | 56 | 156 | 0.0 | 4.0 | 0.00 | 0.33 | 0.10 | 84 | 1009.5 |
| 20260903164517 | 56 | 196 | 2.0 | 7.0 | 0.00 | 0.33 | 0.10 | 84 | 1009.5 |
| 20260903164011 | 56 | 90 | 1.0 | 9.0 | 0.00 | 0.33 | 0.10 | 84 | 1009.5 |
| 20260903163503 | 56 | 97 | 5.0 | 9.0 | 0.00 | 0.33 | 0.10 | 84 | 1009.5 |
| 20260903163007 | 56 | 115 | 2.0 | 6.0 | 0.00 | 0.33 | 0.10 | 84 | 1009.5 |
| 20260903162508 | 57 | 83 | 0.0 | 4.0 | 0.00 | 0.33 | 0.10 | 86 | 1009.5 |
| 20260903162006 | 56 | 110 | 2.0 | 3.0 | 0.00 | 0.33 | 0.10 | 84 | 1009.5 |
| 20260903161512 | 56 | 140 | 0.0 | 7.0 | 0.00 | 0.33 | 0.10 | 86 | 1009.5 |
| 20260903161013 | 56 | 127 | 1.0 | 7.0 | 0.00 | 0.33 | 0.10 | 85 | 1009.4 |
| 20260903160509 | 56 | 79 | 2.0 | 3.0 | 0.00 | 0.33 | 0.10 | 84 | 1009.4 |
| 20260903160028 | 56 | 101 | 1.0 | 4.0 | 0.00 | 0.33 | 0.10 | 84 | 1009.4 |
| 20260903155515 | 56 | 86 | 1.0 | 4.0 | 0.00 | 0.33 | 0.10 | 85 | 1009.5 |
| 20260903155010 | 56 | 200 | 1.0 | 4.0 | 0.00 | 0.33 | 0.10 | 85 | 1009.6 |
| 20260903154524 | 56 | 134 | 1.0 | 6.0 | 0.00 | 0.33 | 0.10 | 86 | 1009.5 |
| 20260903154012 | 56 | 196 | 2.0 | 6.0 | 0.00 | 0.33 | 0.10 | 85 | 1009.5 |
| 20260903153514 | 56 | 171 | 1.0 | 5.0 | 0.00 | 0.33 | 0.10 | 85 | 1009.5 |
| 20260903153020 | 56 | 179 | 0.0 | 2.0 | 0.00 | 0.33 | 0.10 | 87 | 1009.5 |
| 20260903152514 | 56 | 99 | 1.0 | 4.0 | 0.00 | 0.33 | 0.10 | 87 | 1009.3 |
| 20260903152007 | 55 | 142 | 0.0 | 4.0 | 0.00 | 0.33 | 0.10 | 87 | 1009.3 |
| 20260903151508 | 55 | 158 | 0.0 | 2.0 | 0.00 | 0.33 | 0.10 | 89 | 1009.3 |
| 20260903151008 | 55 | 134 | 0.0 | 2.0 | 0.01 | 0.33 | 0.10 | 89 | 1009.3 |
| 20260903150507 | 54 | 87 | 1.0 | 2.0 | 0.01 | 0.33 | 0.10 | 90 | 1009.3 |
| 20260903150023 | 54 | 110 | 1.0 | 2.0 | 0.01 | 0.33 | 0.10 | 90 | 1009.3 |
| 20260903145512 | 53 | 96 | 0.0 | 2.0 | 0.01 | 0.33 | 0.10 | 91 | 1009.3 |
| 20260903145016 | 53 | 96 | 0.0 | 2.0 | 0.01 | 0.33 | 0.10 | 91 | 1009.2 |
| 20260903144540 | 53 | 42 | 0.0 | 2.0 | 0.01 | 0.33 | 0.10 | 91 | 1009.1 |
| 20260903144013 | 53 | 67 | 0.0 | 2.0 | 0.01 | 0.33 | 0.10 | 91 | 1009.1 |
| 20260903143514 | 53 | 108 | 0.0 | 2.0 | 0.01 | 0.33 | 0.10 | 91 | 1009.1 |
| 20260903143039 | 53 | 108 | 0.0 | 2.0 | 0.02 | 0.33 | 0.10 | 91 | 1009.0 |
| 20260903142514 | 53 | 108 | 0.0 | 2.0 | 0.02 | 0.33 | 0.10 | 90 | 1009.0 |
| 20260903142015 | 53 | 108 | 0.0 | 2.0 | 0.02 | 0.33 | 0.10 | 91 | 1009.0 |
| 20260903141526 | 53 | 115 | 0.0 | 4.0 | 0.02 | 0.33 | 0.10 | 90 | 1008.9 |